BAW1549 EDLP-EGCC

Flight info

Callsign BAW1549
Flight time N/A
Altitude 38000
Route HMM9X HMM L602 SPY DCT RAVLO Y70 OTBED
Aircraft A20N/M-SDE2E3FGHIRWXY/LB1

Departure

Time 2026-04-30 22:18
Airport Paderborn Lippstadt Airport (EDLP)

Arrival

Time N/A
Airport Manchester Airport (EGCC)
Time Latitude Longitude Altitude Speed Heading
2026-04-30 21:59 51.61152 8.61998 688 ft 0 kts 147°
2026-04-30 22:11 51.61159 8.61991 685 ft 8 kts 147°
2026-04-30 22:12 51.61190 8.61968 686 ft 3 kts 185°
2026-04-30 22:12 51.61207 8.61974 689 ft 0 kts 221°
2026-04-30 22:14 51.61193 8.61947 689 ft 8 kts 233°
2026-04-30 22:14 51.61154 8.61854 691 ft 12 kts 237°
2026-04-30 22:14 51.61104 8.61731 695 ft 14 kts 237°
2026-04-30 22:14 51.61047 8.61590 692 ft 16 kts 236°
2026-04-30 22:15 51.61000 8.61477 696 ft 3 kts 236°
2026-04-30 22:15 51.60981 8.61430 699 ft 7 kts 237°
2026-04-30 22:15 51.60958 8.61350 698 ft 9 kts 263°
2026-04-30 22:15 51.60972 8.61237 693 ft 14 kts 283°
2026-04-30 22:16 51.60973 8.61058 701 ft 17 kts 234°
2026-04-30 22:16 51.60906 8.60882 698 ft 20 kts 237°
2026-04-30 22:17 51.60774 8.60381 704 ft 1 kts 321°
2026-04-30 22:17 51.60795 8.60361 707 ft 6 kts 329°
2026-04-30 22:17 51.61252 8.61254 694 ft 120 kts 55°
2026-04-30 22:18 51.61813 8.62598 843 ft 158 kts 58°
2026-04-30 22:18 51.63078 8.65524 2401 ft 150 kts 64°
2026-04-30 22:19 51.64229 8.68554 3460 ft 184 kts 67°
2026-04-30 22:19 51.64957 8.70375 4277 ft 207 kts 58°
2026-04-30 22:19 51.66331 8.72520 5078 ft 209 kts 38°
2026-04-30 22:20 51.67679 8.73541 5688 ft 221 kts 21°
2026-04-30 22:20 51.70907 8.73754 7072 ft 249 kts 352°
2026-04-30 22:20 51.72572 8.72865 7816 ft 263 kts 338°
2026-04-30 22:21 51.74168 8.71296 8592 ft 276 kts 323°
2026-04-30 22:21 51.75431 8.68844 8830 ft 295 kts 298°
2026-04-30 22:21 51.75959 8.65624 8822 ft 302 kts 270°
2026-04-30 22:21 51.75566 8.62271 8916 ft 314 kts 245°
2026-04-30 22:22 51.74964 8.60078 9102 ft 331 kts 245°
2026-04-30 22:22 51.74252 8.56407 9474 ft 356 kts 258°
2026-04-30 22:22 51.74076 8.52310 9788 ft 379 kts 272°
2026-04-30 22:22 51.74366 8.48010 10363 ft 390 kts 280°
2026-04-30 22:23 51.74896 8.43683 11136 ft 395 kts 283°
2026-04-30 22:23 51.75515 8.39333 11895 ft 399 kts 284°
2026-04-30 22:23 51.76158 8.34940 12638 ft 404 kts 284°
2026-04-30 22:23 51.76803 8.30493 13385 ft 409 kts 284°
2026-04-30 22:24 51.77445 8.25992 14129 ft 414 kts 284°
2026-04-30 22:24 51.78087 8.21427 14792 ft 419 kts 284°
2026-04-30 22:24 51.78729 8.16821 15505 ft 421 kts 284°
2026-04-30 22:24 51.79363 8.12243 16181 ft 425 kts 284°
2026-04-30 22:25 51.80016 8.07507 16872 ft 428 kts 284°
2026-04-30 22:25 51.80666 8.02789 17555 ft 432 kts 284°
2026-04-30 22:25 51.81375 7.98059 18219 ft 435 kts 286°
2026-04-30 22:25 51.82125 7.93365 18841 ft 438 kts 286°
2026-04-30 22:26 51.83660 7.83769 20041 ft 443 kts 286°
2026-04-30 22:26 51.84421 7.78927 20629 ft 446 kts 286°
2026-04-30 22:26 51.85184 7.74054 21209 ft 448 kts 287°
2026-04-30 22:27 51.86179 7.69272 21784 ft 449 kts 295°
2026-04-30 22:27 51.87503 7.64697 22330 ft 450 kts 298°
2026-04-30 22:27 51.90245 7.55518 23445 ft 455 kts 298°
2026-04-30 22:28 51.93003 7.46197 24444 ft 461 kts 297°
2026-04-30 22:28 51.94386 7.41510 24870 ft 464 kts 297°
2026-04-30 22:29 51.98577 7.27252 26078 ft 472 kts 297°
2026-04-30 22:29 51.99989 7.22431 26460 ft 474 kts 297°
2026-04-30 22:30 52.05679 7.02897 27854 ft 484 kts 297°
2026-04-30 22:31 52.09990 6.87908 28699 ft 491 kts 297°
2026-04-30 22:32 52.14147 6.72573 29292 ft 497 kts 292°
2026-04-30 22:32 52.16511 6.62010 30111 ft 488 kts 292°